Location: Vancouver
(49.2827°N, 123.1207°W)
Time: 00:54:58
(UTC-07:00)

Envisat - Pass Details

Date: 31 May 2024
Orbit: 762 x 764 km, 98.3° (Epoch: 19 June)

Event Time Altitude Azimuth Distance (km) Brightness Sun altitude
Rises 04:29:32 0° 15° (NNE) 3,240 7.4 -6.1°
Reaches altitude 10° 04:31:52 10° 18° (NNE) 2,309 6.6 -5.8°
Maximum altitude 04:36:57 71° 103° (ESE) 808 3.3 -5.2°
Drops below altitude 10° 04:42:00 10° 187° (S) 2,291 5.0 -4.6°
Sets 04:44:18 0° 190° (S) 3,212 5.7 -4.3°
